TimeEDT,TemperatureF,Dew PointF,Humidity,Sea Level PressureIn,VisibilityMPH,Wind Direction,Wind SpeedMPH,Gust SpeedMPH,PrecipitationIn,Events,Conditions,WindDirDegrees,DateUTC
12:15 AM,70.2,70.2,100,30.05,10.0,South,6.9,-,N/A,,Overcast,180,2013-08-01 04:15:00
12:35 AM,70.2,70.2,100,30.05,10.0,South,8.1,-,N/A,,Overcast,190,2013-08-01 04:35:00
12:55 AM,70.2,70.2,100,30.04,7.0,South,6.9,-,N/A,,Overcast,170,2013-08-01 04:55:00
1:15 AM,70.2,70.2,100,30.04,10.0,South,6.9,-,N/A,,Overcast,190,2013-08-01 05:15:00
1:35 AM,70.3,70.3,100,30.03,10.0,SSW,8.1,-,N/A,,Overcast,200,2013-08-01 05:35:00
1:55 AM,70.5,70.5,100,30.03,10.0,SSW,5.8,-,N/A,,Overcast,210,2013-08-01 05:55:00
2:15 AM,70.7,70.7,100,30.02,7.0,SW,4.6,-,N/A,,Overcast,220,2013-08-01 06:15:00
2:35 AM,70.7,70.7,100,30.02,5.0,SSW,3.5,-,N/A,,Overcast,210,2013-08-01 06:35:00
2:55 AM,70.7,70.7,100,30.00,7.0,Calm,Calm,-,N/A,,Overcast,0,2013-08-01 06:55:00
3:15 AM,70.7,70.7,100,29.99,7.0,South,3.5,-,N/A,,Overcast,190,2013-08-01 07:15:00
3:35 AM,70.7,70.7,100,29.99,10.0,South,3.5,-,N/A,,Overcast,170,2013-08-01 07:35:00
3:55 AM,70.9,70.5,99,29.98,10.0,South,4.6,-,N/A,,Overcast,190,2013-08-01 07:55:00
4:15 AM,70.5,70.2,99,29.98,10.0,South,4.6,-,N/A,,Scattered Clouds,180,2013-08-01 08:15:00
4:35 AM,70.3,70.0,99,29.98,10.0,SSW,3.5,-,N/A,,Mostly Cloudy,200,2013-08-01 08:35:00
4:55 AM,70.3,70.0,99,29.98,10.0,SSW,5.8,-,N/A,,Overcast,210,2013-08-01 08:55:00
5:15 AM,70.3,70.2,99,29.98,7.0,SSW,4.6,-,N/A,,Overcast,200,2013-08-01 09:15:00
5:35 AM,70.2,69.8,99,29.98,7.0,South,3.5,-,N/A,,Overcast,190,2013-08-01 09:35:00
5:55 AM,70.2,69.8,99,29.98,10.0,Calm,Calm,-,N/A,,Overcast,0,2013-08-01 09:55:00
6:15 AM,70.0,69.8,99,29.98,7.0,Calm,Calm,-,N/A,,Overcast,0,2013-08-01 10:15:00
6:35 AM,70.2,69.8,99,29.99,7.0,South,3.5,-,N/A,,Overcast,180,2013-08-01 10:35:00
6:55 AM,70.3,69.8,98,29.98,7.0,South,3.5,-,N/A,,Overcast,170,2013-08-01 10:55:00
7:15 AM,70.7,69.8,97,29.99,7.0,South,3.5,-,N/A,,Overcast,190,2013-08-01 11:15:00
7:35 AM,70.7,69.8,97,29.99,7.0,SSW,4.6,-,N/A,,Overcast,200,2013-08-01 11:35:00
7:55 AM,70.7,70.3,99,29.99,3.0,SSW,5.8,-,N/A,,Overcast,210,2013-08-01 11:55:00
8:15 AM,70.7,70.3,99,29.99,5.0,SSW,4.6,-,N/A,,Overcast,200,2013-08-01 12:15:00
8:35 AM,71.4,70.3,96,29.99,7.0,SSW,4.6,-,N/A,,Overcast,210,2013-08-01 12:35:00
8:55 AM,71.6,70.3,96,30.00,7.0,SSW,3.5,-,N/A,,Overcast,200,2013-08-01 12:55:00
9:15 AM,72.1,70.7,95,30.00,7.0,SSW,4.6,-,N/A,,Overcast,200,2013-08-01 13:15:00
9:35 AM,72.3,70.7,95,30.00,7.0,SSW,4.6,-,N/A,,Overcast,210,2013-08-01 13:35:00
9:55 AM,73.0,70.7,92,30.00,7.0,SW,4.6,-,N/A,,Overcast,220,2013-08-01 13:55:00
10:15 AM,73.4,70.7,91,29.99,7.0,SSW,5.8,-,N/A,,Overcast,200,2013-08-01 14:15:00
10:35 AM,74.3,70.7,88,29.99,7.0,SSW,4.6,-,N/A,,Mostly Cloudy,210,2013-08-01 14:35:00
10:55 AM,75.2,70.7,86,29.99,10.0,SSW,5.8,-,N/A,,Mostly Cloudy,200,2013-08-01 14:55:00
11:15 AM,75.9,70.2,82,29.99,10.0,South,5.8,-,N/A,,Mostly Cloudy,190,2013-08-01 15:15:00
11:35 AM,76.3,71.1,84,29.99,10.0,WSW,3.5,-,N/A,,Mostly Cloudy,240,2013-08-01 15:35:00
11:55 AM,77.0,71.1,82,29.99,10.0,SSW,8.1,-,N/A,,Scattered Clouds,210,2013-08-01 15:55:00
12:15 PM,77.4,71.1,81,29.99,10.0,South,5.8,-,N/A,,Scattered Clouds,190,2013-08-01 16:15:00
12:35 PM,77.9,71.1,79,29.99,10.0,SSW,5.8,-,N/A,,Mostly Cloudy,210,2013-08-01 16:35:00
12:55 PM,79.0,70.5,75,29.98,10.0,SSW,5.8,-,N/A,,Mostly Cloudy,210,2013-08-01 16:55:00
1:15 PM,79.0,70.5,75,29.97,10.0,Calm,Calm,-,N/A,,Scattered Clouds,0,2013-08-01 17:15:00
1:35 PM,79.7,70.2,73,29.96,10.0,Calm,Calm,-,N/A,,Scattered Clouds,0,2013-08-01 17:35:00
1:55 PM,80.2,69.8,70,29.95,10.0,Calm,Calm,-,N/A,,Scattered Clouds,0,2013-08-01 17:55:00
2:15 PM,81.7,69.1,65,29.95,10.0,Calm,Calm,-,N/A,,Scattered Clouds,0,2013-08-01 18:15:00
2:35 PM,81.7,69.8,67,29.95,10.0,Calm,Calm,-,N/A,,Mostly Cloudy,0,2013-08-01 18:35:00
2:55 PM,81.3,70.0,68,29.95,10.0,Calm,Calm,-,N/A,,Scattered Clouds,0,2013-08-01 18:55:00
3:15 PM,81.1,70.2,69,29.95,10.0,Calm,Calm,-,N/A,,Scattered Clouds,0,2013-08-01 19:15:00
3:35 PM,80.4,72.0,75,29.94,10.0,West,4.6,-,N/A,Rain,Light Rain,270,2013-08-01 19:35:00
3:55 PM,79.3,72.1,79,29.93,10.0,Calm,Calm,-,N/A,,Clear,0,2013-08-01 19:55:00
4:15 PM,80.2,71.6,75,29.94,10.0,SW,3.5,-,N/A,,Clear,230,2013-08-01 20:15:00
4:35 PM,81.3,69.6,67,29.93,10.0,WSW,3.5,-,N/A,,Clear,240,2013-08-01 20:35:00
4:55 PM,81.1,70.7,70,29.93,10.0,WSW,3.5,-,N/A,,Scattered Clouds,240,2013-08-01 20:55:00
5:15 PM,81.7,70.9,70,29.92,10.0,SSW,3.5,-,N/A,,Scattered Clouds,200,2013-08-01 21:15:00
5:35 PM,82.0,71.2,70,29.92,10.0,Calm,Calm,-,N/A,,Clear,0,2013-08-01 21:35:00
5:55 PM,82.6,71.4,69,29.93,10.0,WSW,3.5,-,N/A,,Clear,250,2013-08-01 21:55:00
6:15 PM,83.5,70.3,64,29.93,10.0,South,5.8,-,N/A,,Clear,190,2013-08-01 22:15:00
6:35 PM,83.3,71.8,68,29.93,10.0,SSW,6.9,-,N/A,,Clear,200,2013-08-01 22:35:00
6:55 PM,82.6,71.6,69,29.94,10.0,SSW,5.8,-,N/A,,Clear,200,2013-08-01 22:55:00
7:15 PM,81.1,72.1,74,29.93,10.0,South,4.6,-,N/A,,Clear,190,2013-08-01 23:15:00
7:35 PM,80.6,72.5,76,29.95,10.0,Calm,Calm,-,N/A,,Clear,0,2013-08-01 23:35:00
7:55 PM,79.9,72.7,79,29.95,10.0,SSE,3.5,-,N/A,,Clear,160,2013-08-01 23:55:00
8:15 PM,77.9,73.4,86,29.96,10.0,South,3.5,-,N/A,,Clear,170,2013-08-02 00:15:00
8:35 PM,77.0,73.4,89,29.97,10.0,Calm,Calm,-,N/A,,Clear,0,2013-08-02 00:35:00
8:55 PM,75.2,73.4,94,29.97,10.0,Calm,Calm,-,N/A,,Clear,0,2013-08-02 00:55:00
9:15 PM,74.7,73.4,96,29.98,7.0,Calm,Calm,-,N/A,,Clear,0,2013-08-02 01:15:00
9:35 PM,73.9,73.2,98,29.98,7.0,Calm,Calm,-,N/A,,Clear,0,2013-08-02 01:35:00
9:55 PM,74.3,73.0,96,29.97,7.0,Calm,Calm,-,N/A,,Clear,0,2013-08-02 01:55:00
10:15 PM,74.8,72.7,93,29.97,10.0,Calm,Calm,-,N/A,,Clear,0,2013-08-02 02:15:00
10:55 PM,74.3,71.8,92,29.98,10.0,Calm,Calm,-,N/A,,Clear,0,2013-08-02 02:55:00
11:15 PM,76.1,71.8,86,29.98,10.0,SSW,4.6,-,N/A,,Clear,200,2013-08-02 03:15:00
11:35 PM,75.7,72.0,88,29.98,10.0,SW,4.6,-,N/A,,Clear,220,2013-08-02 03:35:00
11:55 PM,75.2,72.0,90,29.99,10.0,SSW,4.6,-,N/A,,Clear,210,2013-08-02 03:55:00